STARLINK-1291 (45393 NORAD) Tracking and Keplerian Element Data

This shows tracking and keplerian element data for the satellite.

Feedback or suggestion? Click here.




ElementValue
Catalog45393
NameSTARLINK-1291
Epoch Orbit1097
Epoch Day145.91667824
Epoch Year2020
RAAN284.2672
Inclination52.9978
Eccentricity0.0008011
Argument of Perigee256.0736
Mean Anonmoly268.6605
Mean Motion15.5883784
Decay Rate0.00734161
L11 45393U 20019AK 20145.91667824 .00734161 00000-0 85024-2 0 9994
L22 45393 52.9978 284.2672 0008011 256.0736 268.6605 15.58837840 10975

Live tracking and technical data element details for STARLINK-1291 (NORAD 45393). STARLINK-1291 can be tracked NOW for your location showing map with azimuth and elevation plus other details from your city location.

Track the satellite on the map from your city or location and see movement details for azimuth, elevation, latitude, longitude, range, height, and movement on the map or in text.







IsCatalogInMostPopularTable: catalog: 45393, numindb: 16
Update: records affected: 1



GetName: 45393 STARLINK-1291

Hit Count: updated at: Tue, 26 May 2020 02:59:21 GMT